Location: Tierra del Sol
(32.6128°N, 116.3319°W)
Time: 05:03:06
(UTC-07:00)

Vanguard 2 Rocket - Visible Passes

Search period start: 22 October 2017 00:00
Search period end: 01 November 2017 00:00
Orbit: 555 x 3327 km, 32.9° (Epoch: 21 October)

Date Brightness Start Highest point End Pass type
(mag) Time Alt. Az. Time Alt. Az. Time Alt. Az.
22 Oct 10.8 19:48:11 10° W 19:58:27 23° SW 20:11:33 10° S visible
23 Oct 10.5 18:47:12 10° W 18:57:23 30° SSW 19:11:47 10° SSE visible
24 Oct 11.1 20:06:54 10° WSW 20:13:13 13° SW 20:20:25 10° SSW visible
25 Oct 10.9 19:03:58 10° WSW 19:12:08 19° SSW 19:22:41 10° S visible
28 Oct 11.0 18:20:32 10° WSW 18:26:13 15° SSW 18:33:16 10° S visible
31 Oct 9.4 06:31:49 10° S 06:33:18 11° SSE 06:34:40 10° SE visible
